Location: Glencliff
(36.1226°N, 86.7183°W)
Time: 04:51:26
(UTC+00:00)

ADEOS II - Pass Details

Date: 25 August 2019
Orbit: 799 x 802 km, 98.5° (Epoch: 17 September)

Event Time Altitude Azimuth Distance (km) Brightness Sun altitude
Rises 08:27:15 0° 11° (NNE) 3,312 6.1 -30.1°
Reaches altitude 10° 08:29:35 10° 11° (N) 2,378 5.2 -29.8°
Enters shadow 08:34:03 65° 358° (N) 877 2.3 -29.1°
